GW4833 Weather Reports


time (UTC)temp
C
wind
direction
speed
KPH
gust
KPH
rain 1hr
cm
rain 24hr
cm
rain mn
cm
humidity
%
barometer
mb
20260508071320 8 294 1.6 1.6 0.00 0.00 0.00 99 1014.4
20260508070817 8 278 3.2 3.2 0.00 0.00 0.00 99 1014.2
20260508070316 8 257 0.0 0.0 0.00 0.00 0.00 99 1014.5
20260508065813 8 257 0.0 0.0 0.00 0.00 0.00 99 1014.5
20260508065310 8 257 0.0 0.0 0.00 0.00 0.00 99 1014.5
20260508064809 8 257 0.0 0.0 0.00 0.00 0.00 99 1014.3
20260508064306 8 257 0.0 0.0 0.00 0.00 0.00 99 1014.3
20260508063803 8 265 3.2 3.2 0.00 0.00 0.00 99 1014.2
20260508063301 8 262 3.2 3.2 0.00 0.00 0.00 99 1014.3
20260508062758 8 269 3.2 3.2 0.00 0.00 0.00 99 1014.2
20260508062256 8 279 3.2 3.2 0.00 0.00 0.00 99 1014.5
20260508061752 8 252 3.2 3.2 0.00 0.00 0.00 99 1014.5
20260508061249 8 284 1.6 3.2 0.00 0.00 0.00 99 1014.3
20260508060746 8 304 1.6 3.2 0.00 0.00 0.00 99 1014.5
20260508060244 8 299 0.0 3.2 0.00 0.00 0.00 99 1014.3
20260508055739 8 304 0.0 1.6 0.00 0.00 0.00 99 1014.3
20260508055236 8 284 1.6 1.6 0.00 0.00 0.00 99 1014.2
20260508054733 9 290 1.6 1.6 0.00 0.00 0.00 99 1014.4
20260508054231 9 295 1.6 3.2 0.00 0.00 0.00 99 1014.5
20260508053728 9 308 1.6 3.2 0.00 0.00 0.00 99 1014.3
20260508053225 9 290 0.0 1.6 0.00 0.00 0.00 99 1014.2
20260508052722 9 336 0.0 0.0 0.00 0.00 0.00 99 1014.2
20260508052219 9 287 0.0 1.6 0.00 0.00 0.00 99 1014.2
20260508051715 9 283 0.0 3.2 0.00 0.00 0.00 99 1014.3
20260508051211 10 277 3.2 3.2 0.00 0.00 0.00 99 1014.2
20260508050708 9 310 0.0 3.2 0.00 0.00 0.00 99 1014.1
20260508050206 10 269 0.0 3.2 0.00 0.00 0.00 99 1014.2
20260508045705 10 25 0.0 1.6 0.00 0.00 0.00 99 1014.1
20260508045204 10 277 1.6 3.2 0.00 0.00 0.00 99 1014.1
20260508044701 10 272 3.2 3.2 0.00 0.00 0.00 99 1014.3
20260508044157 10 273 3.2 3.2 0.00 0.00 0.00 99 1014.0
20260508043653 10 271 1.6 3.2 0.00 0.00 0.00 99 1014.0
20260508043152 10 269 1.6 3.2 0.00 0.00 0.00 99 1014.1
20260508042648 10 310 0.0 3.2 0.00 0.00 0.00 99 1013.9
20260508042145 10 310 0.0 3.2 0.00 0.00 0.00 99 1013.8
20260508041641 10 269 0.0 1.6 0.00 0.00 0.00 99 1013.8
20260508041139 10 304 0.0 0.0 0.00 0.00 0.00 99 1013.7
20260508040635 10 304 0.0 0.0 0.00 0.00 0.00 99 1013.9
20260508040133 10 304 0.0 1.6 0.00 0.00 0.00 99 1013.9
20260508035630 10 298 0.0 3.2 0.00 1.60 1.60 99 1013.7
20260508035127 10 249 0.0 1.6 0.00 1.60 1.60 99 1013.8
20260508034624 10 310 0.0 1.6 0.00 1.60 1.60 99 1013.7
20260508034121 10 318 0.0 1.6 0.00 1.60 1.60 99 1013.8
20260508033618 10 256 0.0 1.6 0.00 1.60 1.60 99 1013.8
20260508033116 10 326 0.0 1.6 0.00 1.60 1.60 99 1013.7
20260508032612 10 326 0.0 1.6 0.00 1.60 1.60 99 1013.6
20260508032110 10 285 1.6 3.2 0.00 1.60 1.60 99 1013.6
20260508031607 10 295 1.6 3.2 0.00 1.60 1.60 99 1013.4
20260508031103 10 276 3.2 3.2 0.00 1.60 1.60 99 1013.5
20260508030559 10 282 4.8 4.8 0.00 1.60 1.60 99 1013.4
20260508030058 10 284 1.6 3.2 0.00 1.60 1.60 99 1013.4
20260508025553 10 253 1.6 1.6 0.00 1.60 1.60 99 1013.5
20260508025050 10 285 1.6 3.2 0.00 1.60 1.60 99 1013.6
20260508024546 10 261 0.0 1.6 0.00 1.60 1.60 99 1013.3
20260508024044 10 290 0.0 1.6 0.00 1.60 1.60 99 1013.3
20260508023540 10 293 0.0 3.2 0.00 1.60 1.60 99 1013.3
20260508023038 10 273 1.6 1.6 0.00 1.60 1.60 99 1013.4
20260508022533 10 290 0.0 0.0 0.00 1.60 1.60 99 1013.2
20260508022031 10 290 0.0 0.0 0.00 1.60 1.60 99 1013.0
20260508021527 11 289 0.0 1.6 0.00 1.60 1.60 99 1013.1
20260508021022 11 38 0.0 0.0 0.00 1.60 1.60 99 1013.0
20260508020520 11 283 0.0 1.6 0.00 1.60 1.60 99 1012.8
20260508020018 11 336 0.0 0.0 0.00 1.60 1.60 99 1013.1
20260508015515 11 269 0.0 3.2 0.00 1.60 1.60 99 1012.8
20260508015012 11 218 0.0 4.8 0.00 1.60 1.60 99 1012.7
20260508014509 11 220 1.6 3.2 0.00 1.60 1.60 99 1012.4
20260508014005 11 353 0.0 0.0 0.00 1.60 1.60 99 1012.5
20260508013501 11 269 0.0 0.0 0.00 1.60 1.60 99 1012.5
20260508012958 11 269 0.0 1.6 0.00 1.60 1.60 99 1012.5
20260508012455 11 304 0.0 0.0 0.00 1.60 1.60 99 1012.2
20260508011952 12 230 0.0 1.6 0.00 1.60 1.60 99 1012.1
20260508011450 12 129 0.0 0.0 0.00 1.60 1.60 99 1011.9
20260508010947 12 230 0.0 1.6 0.00 1.60 1.60 99 1012.0
20260508010444 12 230 0.0 1.6 0.00 1.60 1.60 99 1011.8
20260508005941 12 246 0.0 3.2 0.00 1.60 1.60 99 1011.7
20260508005438 12 339 0.0 1.6 0.00 1.60 1.60 99 1011.5
20260508004934 12 336 0.0 1.6 0.00 1.60 1.60 99 1011.5
20260508004431 12 168 0.0 3.2 0.00 1.60 1.60 99 1011.4
20260508003928 12 309 0.0 0.0 0.00 1.60 1.60 99 1011.7
20260508003425 12 309 0.0 0.0 0.00 1.60 1.60 99 1011.7
20260508002922 12 352 0.0 0.0 0.00 1.60 1.60 99 1011.7
20260508002419 12 32 0.0 0.0 0.00 1.60 1.60 99 1011.8
20260508001915 12 89 0.0 1.6 0.00 1.60 1.60 99 1011.7
20260508001411 12 88 3.2 4.8 0.00 1.60 1.60 99 1011.5
20260508000908 12 55 0.0 3.2 0.00 1.60 1.60 99 1011.5
20260508000404 13 53 0.0 0.0 0.00 1.60 1.60 99 1011.5
20260507235900 13 6 0.0 0.0 0.00 1.60 1.60 99 1011.8
20260507235357 13 230 0.0 0.0 0.00 1.60 1.60 99 1011.7
20260507234854 13 230 0.0 0.0 0.00 1.60 1.60 99 1011.4
20260507234351 13 230 0.0 0.0 0.00 1.60 1.60 99 1011.4
20260507233847 13 69 0.0 3.2 0.00 1.60 1.60 99 1011.2
20260507233345 13 5 0.0 0.0 0.00 1.60 1.60 99 1011.2
20260507232843 13 230 0.0 1.6 0.00 1.60 1.60 99 1011.0
20260507232339 13 214 0.0 0.0 0.00 1.60 1.60 99 1011.0
20260507231837 13 129 3.2 4.8 0.00 1.60 1.60 99 1010.8
20260507231333 13 135 0.0 4.8 0.00 1.60 1.60 99 1010.6
20260507230829 13 132 3.2 3.2 0.00 1.60 1.60 99 1010.6
20260507230327 13 60 3.2 6.4 0.00 1.60 1.60 99 1010.7
20260507225826 13 144 3.2 3.2 0.00 1.60 1.60 99 1010.6
20260507225323 13 95 6.4 6.4 0.00 1.60 1.60 99 1010.6
20260507224819 13 115 6.4 8.0 0.00 1.60 1.60 99 1010.6
20260507224316 13 224 0.0 3.2 0.00 1.60 1.60 99 1010.6
20260507223812 13 77 0.0 1.6 0.00 1.60 1.60 99 1010.3
20260507223308 13 123 3.2 6.4 0.00 1.60 1.60 99 1010.1
20260507222806 13 82 0.0 6.4 0.05 1.60 1.60 99 1010.2
20260507222305 13 88 4.8 8.0 0.18 1.60 1.60 99 1010.1
20260507221759 13 99 6.4 9.7 0.18 1.57 1.57 99 1010.1
20260507221255 13 108 3.2 6.4 0.13 1.55 1.55 99 1010.4
20260507220751 13 38 3.2 4.8 0.05 1.55 1.55 99 1010.3
20260507220250 13 100 0.0 1.6 0.00 1.55 1.55 99 1010.3
20260507215746 13 129 0.0 0.0 0.00 1.55 1.55 99 1009.9
20260507215243 13 76 3.2 9.7 0.00 1.55 1.55 99 1010.0
20260507214740 13 137 3.2 3.2 0.00 1.55 1.55 99 1009.8
20260507214238 13 234 0.0 4.8 0.00 1.55 1.55 99 1010.1
20260507213733 13 144 4.8 4.8 0.00 1.55 1.55 99 1009.9
20260507213231 13 92 3.2 9.7 0.00 1.55 1.55 99 1009.8
20260507212727 13 62 12.9 12.9 0.05 1.55 1.55 99 1009.5
20260507212223 13 192 3.2 9.7 0.18 1.55 1.55 99 1009.7
20260507211720 13 107 3.2 6.4 0.18 1.52 1.52 99 1009.7
20260507211215 13 27 3.2 6.4 0.13 1.50 1.50 99 1010.0
20260507210713 12 74 3.2 8.0 0.13 1.50 1.50 99 1010.0
20260507210210 13 218 3.2 8.0 0.05 1.50 1.50 99 1009.7
20260507205706 13 22 3.2 11.3 0.05 1.47 1.47 99 1009.7
20260507205203 13 136 3.2 4.8 0.05 1.47 1.47 99 1009.8
20260507204659 13 76 0.0 3.2 0.05 1.47 1.47 99 1009.9
20260507204157 13 40 6.4 6.4 0.18 1.47 1.47 99 1009.8
20260507203655 13 275 0.0 4.8 0.53 1.45 1.45 99 1009.6
20260507203152 13 65 4.8 9.7 1.63 1.45 1.45 99 1009.1
20260507202647 13 98 8.0 9.7 1.80 1.37 1.37 99 1010.0
20260507202144 13 65 4.8 16.1 0.71 1.12 1.12 99 1009.9
20260507201645 13 138 3.2 8.0 0.30 1.04 1.04 98 1009.9
20260507201142 13 109 6.4 14.5 0.05 0.99 0.99 97 1009.5
20260507200638 13 54 0.0 6.4 0.00 0.99 0.99 97 1009.9
20260507200134 13 86 3.2 9.7 0.00 0.99 0.99 96 1009.4
20260507195631 14 218 6.4 6.4 0.00 0.99 0.99 96 1009.6
20260507195128 14 21 4.8 12.9 0.00 0.99 0.99 96 1009.3
20260507194626 14 32 11.3 19.3 0.00 0.99 0.99 96 1009.4
20260507194120 14 194 1.6 11.3 0.00 0.99 0.99 96 1009.5
20260507193618 15 54 8.0 14.5 0.00 0.99 0.99 96 1009.5
20260507193115 15 122 3.2 4.8 0.00 0.99 0.99 97 1009.4
20260507192611 16 47 3.2 3.2 0.00 0.99 0.99 96 1009.3
20260507192108 16 88 1.6 9.7 0.00 0.99 0.99 95 1009.2
20260507191603 16 79 0.0 3.2 0.00 0.99 0.99 97 1009.3
20260507191100 16 93 1.6 8.0 0.00 0.99 0.99 97 1009.2
20260507190558 15 17 3.2 6.4 0.00 0.99 0.99 97 1009.3
20260507190056 15 121 6.4 9.7 0.00 0.99 0.99 97 1009.4
20260507185554 15 97 1.6 16.1 0.00 0.99 0.99 97 1009.6
20260507185051 15 40 9.7 9.7 0.00 0.99 0.99 98 1009.6
20260507184549 15 15 3.2 8.0 0.00 0.99 0.99 98 1009.4
20260507184047 16 139 8.0 11.3 0.00 0.99 0.99 99 1009.6
20260507183542 16 169 4.8 14.5 0.00 0.99 0.99 99 1009.7
20260507183039 16 64 6.4 9.7 0.00 0.99 0.99 99 1009.5
20260507182536 16 124 3.2 9.7 0.00 0.99 0.99 99 1009.5
20260507182032 16 83 3.2 4.8 0.00 0.99 0.99 99 1009.7
20260507181529 16 153 0.0 6.4 0.05 0.99 0.99 99 1009.7
20260507181025 16 137 8.0 8.0 0.05 0.99 0.99 99 1009.4
20260507180521 16 85 3.2 6.4 0.05 0.99 0.99 99 1009.4
20260507180019 16 85 3.2 11.3 0.13 0.99 0.99 98 1009.5
20260507175515 17 93 1.6 6.4 0.05 0.97 0.97 98 1009.6
20260507175012 17 80 1.6 4.8 0.00 0.97 0.97 98 1009.7
20260507174509 17 64 0.0 6.4 0.00 0.97 0.97 98 1009.7
20260507174007 17 84 0.0 8.0 0.00 0.97 0.97 98 1009.5
20260507173504 17 67 3.2 6.4 0.00 0.97 0.97 97 1009.6
20260507173001 17 38 3.2 6.4 0.00 0.97 0.97 97 1009.5
20260507172457 17 252 3.2 3.2 0.00 0.97 0.97 97 1009.6
20260507171954 17 247 3.2 3.2 0.00 0.97 0.97 97 1009.7
20260507171449 18 134 3.2 9.7 0.00 0.97 0.97 96 1009.6
20260507170947 19 60 1.6 3.2 0.00 0.97 0.97 94 1009.2
20260507170443 20 238 1.6 4.8 0.00 0.97 0.97 94 1009.4
20260507165940 19 157 0.0 4.8 0.00 0.97 0.97 95 1009.5
20260507165436 19 262 1.6 3.2 0.00 0.97 0.97 96 1009.6
20260507164932 18 180 3.2 6.4 0.00 0.97 0.97 97 1009.9
20260507164429 18 147 0.0 4.8 0.00 0.97 0.97 97 1009.4
20260507163926 18 89 0.0 4.8 0.00 0.97 0.97 98 1009.2
20260507163423 19 226 3.2 6.4 0.00 0.97 0.97 97 1009.1
20260507162920 18 138 0.0 3.2 0.00 0.97 0.97 99 1009.1
20260507162415 18 208 3.2 6.4 0.00 0.97 0.97 99 1008.9
20260507161913 18 141 0.0 4.8 0.00 0.97 0.97 99 1009.0
20260507161409 19 22 0.0 3.2 0.00 0.97 0.97 99 1009.1
20260507160906 18 214 0.0 0.0 0.00 0.97 0.97 99 1009.1
20260507160401 18 329 0.0 1.6 0.00 0.97 0.97 99 1009.5
20260507155858 17 71 1.6 3.2 0.00 0.97 0.97 99 1009.3
20260507155354 17 71 1.6 3.2 0.00 0.97 0.97 99 1009.3
20260507154850 17 71 1.6 3.2 0.05 0.97 0.97 99 1009.8
20260507154348 17 71 1.6 3.2 0.05 0.97 0.97 99 1009.8
20260507153845 17 71 1.6 3.2 0.00 0.94 0.94 99 1009.8
20260507153341 17 251 3.2 4.8 0.00 0.94 0.94 99 1010.2
20260507152838 17 251 3.2 4.8 0.00 0.94 0.94 99 1010.0
20260507152334 17 251 3.2 4.8 0.05 0.94 0.94 99 1009.9
20260507151830 17 251 3.2 4.8 0.05 0.94 0.94 99 1010.0
20260507151327 17 251 3.2 4.8 0.00 0.94 0.94 99 1010.5
20260507150824 17 251 3.2 4.8 0.00 0.94 0.94 99 1010.3
20260507150320 17 205 3.2 9.7 0.00 0.94 0.94 99 1010.7
20260507145816 17 247 4.8 6.4 0.00 0.94 0.94 99 1010.8
20260507145313 18 250 3.2 4.8 0.05 0.94 0.94 99 1010.6
20260507144810 17 281 1.6 1.6 0.00 0.94 0.94 99 1009.9
20260507144307 17 281 1.6 1.6 0.00 0.94 0.94 99 1009.8
20260507143804 17 281 1.6 1.6 0.05 0.94 0.94 99 1009.7
20260507143301 17 281 1.6 1.6 0.13 0.91 0.91 99 1009.9
20260507142757 17 297 3.2 3.2 0.18 0.91 0.91 99 1010.1
20260507142254 17 321 3.2 4.8 0.23 0.89 0.89 99 1010.2
20260507141750 17 313 3.2 6.4 0.23 0.89 0.89 99 1010.2
20260507141247 17 268 3.2 6.4 0.05 0.86 0.86 99 1010.3
20260507140743 17 204 3.2 3.2 0.05 0.84 0.84 99 1010.1
20260507140241 17 288 3.2 3.2 0.18 0.84 0.84 99 1010.1
20260507135738 17 134 1.6 3.2 0.18 0.84 0.84 99 1010.1
20260507135235 17 134 1.6 3.2 0.05 0.81 0.81 99 1009.3
20260507134731 17 134 1.6 3.2 0.00 0.81 0.81 99 1009.2
20260507134228 17 134 1.6 3.2 0.13 0.81 0.81 99 1009.1
20260507133724 17 134 1.6 3.2 0.13 0.79 0.79 99 1009.2
20260507133221 17 134 1.6 3.2 0.13 0.79 0.79 99 1009.4
20260507132718 17 134 1.6 3.2 0.05 0.76 0.76 99 1009.6
20260507132215 17 134 1.6 3.2 0.13 0.76 0.76 99 1010.0
20260507131711 17 134 1.6 3.2 0.18 0.74 0.74 99 1009.9
20260507131209 17 241 3.2 3.2 0.23 0.74 0.74 99 1010.2
20260507130705 17 262 3.2 4.8 0.18 0.71 0.71 99 1010.5
20260507130203 17 214 1.6 3.2 0.30 0.71 0.71 99 1010.6
20260507125702 17 262 3.2 4.8 0.43 0.69 0.69 99 1010.8
20260507125159 17 252 6.4 8.0 0.53 0.66 0.66 99 1010.9
20260507124655 17 258 3.2 3.2 0.53 0.61 0.61 99 1011.0
20260507124153 17 232 6.4 6.4 0.48 0.56 0.56 99 1011.3
20260507123651 17 221 6.4 6.4 0.30 0.51 0.51 99 1011.2
20260507123148 17 220 3.2 4.8 0.13 0.48 0.48 99 1011.1
20260507122643 17 180 0.0 6.4 0.13 0.46 0.46 99 1010.7
20260507122139 17 233 3.2 3.2 0.23 0.46 0.46 99 1010.8
20260507121635 17 238 3.2 3.2 0.36 0.43 0.43 99 1010.7
20260507121131 17 116 1.6 4.8 0.36 0.41 0.41 99 1010.6
20260507120627 17 229 3.2 9.7 0.48 0.38 0.38 99 1010.7
20260507120124 17 269 0.0 0.0 0.61 0.36 0.36 99 1010.7
20260507115621 17 269 0.0 0.0 0.66 0.30 0.30 99 1010.5
20260507115116 17 269 0.0 0.0 0.30 0.23 0.23 99 1010.4
20260507114612 17 269 0.0 0.0 0.00 0.18 0.18 99 1010.5
20260507114110 -17 0.0 0.0 0.00 0.18 0.18 1010.8
20260507113607 -17 0.0 0.0 0.05 0.18 0.18 1010.1
20260507113104 -17 0.0 0.0 0.05 0.18 0.18 1010.0
20260507112602 -17 0.0 0.0 0.00 0.18 0.18 1010.4
20260507112058 -17 0.0 0.0 0.00 0.18 0.18 1010.5
20260507111555 -17 0.0 0.0 0.05 0.18 0.18 1009.9
20260507111052 -17 0.0 0.0 0.05 0.18 0.18 1009.8
20260507110548 -17 0.0 0.0 0.00 0.18 0.18 1010.0
20260507110045 -17 0.0 0.0 0.05 0.18 0.18 1010.0
20260507105542 17 282 3.2 3.2 0.05 0.18 0.18 99 1010.1
20260507105038 17 282 3.2 3.2 0.00 0.15 0.15 99 1010.3
20260507104536 17 282 3.2 3.2 0.00 0.15 0.15 99 1010.2
20260507104032 17 282 3.2 3.2 0.00 0.15 0.15 99 1010.1
20260507103528 17 282 3.2 3.2 0.00 0.15 0.15 99 1010.2
20260507103025 17 282 3.2 3.2 0.00 0.15 0.15 99 1010.4
20260507102521 17 282 3.2 3.2 0.00 0.15 0.15 99 1010.2
20260507102017 17 282 3.2 3.2 0.00 0.15 0.15 99 1010.1
20260507101513 17 282 3.2 3.2 0.00 0.15 0.15 99 1010.3
20260507101010 17 282 3.2 3.2 0.00 0.15 0.15 99 1010.1
20260507100507 17 282 3.2 3.2 0.00 0.15 0.15 99 1010.4
20260507100005 17 282 3.2 3.2 0.00 0.15 0.15 99 1010.1
20260507095503 17 269 3.2 3.2 0.00 0.15 0.15 99 1009.9
20260507094959 17 269 3.2 3.2 0.00 0.15 0.15 99 1010.1
20260507094455 17 269 3.2 3.2 0.05 0.15 0.15 99 1010.3
20260507093953 17 269 3.2 3.2 0.05 0.15 0.15 99 1010.7
20260507093450 17 342 3.2 3.2 0.00 0.15 0.15 99 1010.4
20260507092948 17 322 0.0 0.0 0.00 0.15 0.15 99 1010.4
20260507092444 17 322 0.0 0.0 0.13 0.15 0.15 99 1010.1
20260507091941 17 322 0.0 0.0 0.18 0.15 0.15 99 1010.2
20260507091438 17 322 0.0 0.0 0.00 0.13 0.13 99 1010.4
20260507090934 17 322 0.0 0.0 0.00 0.13 0.13 99 1010.5
20260507090430 17 322 0.0 0.0 0.00 0.13 0.13 99 1010.1
20260507085926 17 5 3.2 3.2 0.00 0.13 0.13 99 1010.0
20260507085424 17 148 0.0 3.2 0.00 0.13 0.13 99 1009.6
20260507084921 17 22 0.0 0.0 0.00 0.13 0.13 99 1009.8
20260507084418 17 83 3.2 3.2 0.00 0.13 0.13 99 1009.9
20260507083915 17 98 0.0 1.6 0.00 0.13 0.13 99 1009.9
20260507083411 17 29 0.0 0.0 0.00 0.13 0.13 99 1009.8
20260507082907 17 29 0.0 0.0 0.00 0.13 0.13 99 1010.1
20260507082403 17 29 0.0 0.0 0.00 0.13 0.13 99 1010.1
20260507081900 17 29 0.0 0.0 0.00 0.13 0.13 99 1010.1
20260507081356 17 29 0.0 0.0 0.00 0.13 0.13 99 1010.2
20260507080853 17 53 3.2 3.2 0.05 0.13 0.13 99 1010.2
20260507080349 17 53 3.2 3.2 0.05 0.13 0.13 99 1010.3
20260507075845 17 53 3.2 3.2 0.05 0.10 0.10 99 1010.3
20260507075341 17 53 3.2 3.2 0.05 0.10 0.10 99 1010.3
20260507074837 17 81 3.2 3.2 0.00 0.10 0.10 99 1010.6
20260507074335 17 173 0.0 0.0 0.00 0.10 0.10 99 1010.8
20260507073832 17 269 0.0 0.0 0.00 0.10 0.10 99 1011.0
20260507073329 17 34 0.0 0.0 0.00 0.10 0.10 99 1011.2
20260507072826 17 34 0.0 0.0 0.00 0.10 0.10 99 1011.0
20260507072324 17 34 0.0 0.0 0.00 0.10 0.10 99 1011.2
20260507071821 17 34 0.0 0.0 0.00 0.10 0.10 99 1011.0